Regional Weather Roundup
Issued by NWS Goodland, KS

Home | Current Version | Previous Version | Text Only | Print | Product List | Glossary On
Versions: 1 2 3 4 5 6 7 8 9 10 11 12 13 14 15 16 17 18 19 20 21 22 23 24 25 26 27 28 29 30 31 32 33 34 35 36 37 38 39 40 41 42 43 44 45 46 47 48 49 50
000
ASUS43 KGLD 202008
RWRGLD

GOODLAND FORECAST AREA HOURLY WEATHER ROUNDUP
NATIONAL WEATHER SERVICE GOODLAND KS
200 PM MDT SUN AUG 20 2017

...OFFICIAL OBSERVATIONS...

CITY           SKY/WX    TMP DP  RH WIND       PRES   REMARKS
GOODLAND KS    PTSUNNY   91  58  32 CALM      29.97F
HILL CITY KS   MOSUNNY   98  63  31 S12       29.89F HX 100
IMPERIAL NEB   SUNNY     89  63  41 NE7       29.97S
MCCOOK NEB     SUNNY     91  61  36 CALM      29.91F
AKRON CO       SUNNY     89  49  25 E12G17    30.06F
BURLINGTON CO  MOSUNNY   89  57  33 E6        30.02F
LIMON CO       CLOUDY    87  43  21 VRB5      30.11F
$$

...UNOFFICIAL OBSERVATIONS...

CITY           SKY/WX    TMP DP  RH WIND       PRES   REMARKS
LENORA KS        N/A     94  32  11 CALM        N/A
NORTON KS      SUNNY     99  54  22 S9        29.90S
TRENTON NEB      N/A     86  32  14 CALM        N/A
KIT CARSON CO    N/A     91  58  32 MISG        N/A
YUMA CO        FAIR      84  43  23 NE8       30.02F
$$




USA.gov is the U.S. government's official web portal to all federal, state and local government web resources and services.